Weather History for North Island, CA

Change the Weather History Date:

Friday, February 15, 2013

  Actual Average Record
Temperature  
Mean Temperature 64 °F -  
Max Temperature 77 °F 61 °F 80 °F (1997)
Min Temperature 50 °F 48 °F 43 °F (2001)
Degree Days  
Heating Degree Days 2    
Growing Degree Days 14 (Base 50)    
Moisture  
Dew Point 35 °F    
Average Humidity 40    
Maximum Humidity 77    
Minimum Humidity 13    
Precipitation  
Precipitation 0.00 in - - ()
Sea Level Pressure  
Sea Level Pressure 30.13 in    
Wind  
Wind Speed 3 mph (NW)    
Max Wind Speed 13 mph    
Max Gust Speed -    
Visibility 10 miles    
Events      
Averages and records for this station are not official NWS values.
T = Trace of Precipitation, MM = Missing Value Source: NWS Daily Summary

Daily Weather History Graph

Daily Weather History Graph

Search for Another Location

Airport:

Trip Planner

Search our weather history database for the weather conditions in past years. The results will help you decide how hot, cold, wet, or windy it might be!

Date:

Astronomy

Feb. 15, 2013 Rise Set
Actual Time 6:31 AM PST 5:34 PM PST
Civil Twilight 6:06 AM PST 5:59 PM PST
Nautical Twilight 5:37 AM PST 6:28 PM PST
Astronomical Twilight 5:08 AM PST 6:57 PM PST
Moon 9:32 AM PST (2/15) 11:16 PM PST (2/15)
Length of Visible Light 11h 53m
Length of Day
11h 03m
Waxing Crescent, 31% of the Moon is Illuminated
Feb 15
Waxing Crescent
Feb 17
First Quarter
Feb 25
Full
Mar 4
Last Quarter
Mar 11
New

Hourly Weather History & Observations

Time (PST) Temp. Dew Point Humidity Pressure Visibility Wind Dir Wind Speed Gust Speed Precip Events Conditions
12:52 AM 58.8 °F 45.0 °F 60% 30.12 in 10.0 mi NNW 3.5 mph - N/A   Mostly Cloudy
1:52 AM 59.4 °F 45.7 °F 61% 30.12 in 10.0 mi Calm Calm - N/A   Mostly Cloudy
2:52 AM 55.8 °F 45.0 °F 67% 30.11 in 10.0 mi Calm Calm - N/A   Mostly Cloudy
3:52 AM 57.2 °F 42.6 °F 58% 30.10 in 10.0 mi Calm Calm - N/A   Mostly Cloudy
4:52 AM 53.1 °F 45.0 °F 74% 30.11 in 10.0 mi NNW 9.2 mph - N/A   Mostly Cloudy
5:52 AM 53.1 °F 46.0 °F 77% 30.11 in 10.0 mi NW 4.6 mph - N/A   Mostly Cloudy
6:52 AM 50.0 °F 43.0 °F 77% 30.12 in 10.0 mi Calm Calm - N/A   Mostly Cloudy
7:52 AM 55.0 °F 46.9 °F 74% 30.14 in 8.0 mi Calm Calm - N/A   Mostly Cloudy
8:52 AM 64.0 °F 42.1 °F 45% 30.15 in 10.0 mi NNE 4.6 mph - N/A   Mostly Cloudy
9:52 AM 72.0 °F 37.0 °F 28% 30.15 in 10.0 mi Calm Calm - N/A   Mostly Cloudy
10:52 AM 73.0 °F 26.1 °F 17% 30.15 in 10.0 mi Calm Calm - N/A   Mostly Cloudy
11:52 AM 75.0 °F 26.1 °F 16% 30.14 in 10.0 mi West 6.9 mph - N/A   Mostly Cloudy
12:52 PM 75.0 °F 26.1 °F 16% 30.12 in 10.0 mi WNW 8.1 mph - N/A   Mostly Cloudy
1:52 PM 77.0 °F 26.1 °F 15% 30.11 in 10.0 mi WNW 10.4 mph - N/A   Mostly Cloudy
2:52 PM 77.0 °F 23.0 °F 13% 30.11 in 10.0 mi NNW 9.2 mph - N/A   Mostly Cloudy
3:52 PM 75.0 °F 30.0 °F 19% 30.12 in 10.0 mi NNW 9.2 mph - N/A   Mostly Cloudy
4:52 PM 75.0 °F 24.1 °F 15% 30.11 in 10.0 mi NNW 8.1 mph - N/A   Mostly Cloudy
5:52 PM 70.0 °F 28.9 °F 22% 30.12 in 10.0 mi North 8.1 mph - N/A   Mostly Cloudy
6:52 PM 69.1 °F 26.1 °F 20% 30.13 in 10.0 mi NNE 12.7 mph - N/A   Mostly Cloudy
7:52 PM 64.9 °F 33.1 °F 31% 30.14 in 10.0 mi SW 3.5 mph - N/A   Scattered Clouds
8:52 PM 62.1 °F 36.0 °F 38% 30.15 in 10.0 mi Calm Calm - N/A   Scattered Clouds
9:52 PM 59.0 °F 33.1 °F 38% 30.15 in 10.0 mi Calm Calm - N/A   Mostly Cloudy
10:52 PM 57.0 °F 35.1 °F 44% 30.14 in 10.0 mi Calm Calm - N/A   Mostly Cloudy
11:52 PM 59.0 °F 34.0 °F 39% 30.13 in 10.0 mi Calm Calm - N/A   Mostly Cloudy